EW5833 Weather Reports


Display with metric or nautical units.
time (UTC)temp
F
wind
direction
speed
MPH
gust
MPH
rain 1hr
in
rain 24hr
in
rain mn
in
humidity
%
barometer
mb
20260506211157 50 321 2.0 8.0 0.00 0.00 0.00 46 1011.3
20260506210657 50 0 2.0 8.0 0.00 0.00 0.00 46 1011.3
20260506210137 51 301 1.0 7.0 0.00 0.00 0.00 46 1011.3
20260506205656 51 0 1.0 7.0 0.00 0.00 0.00 46 1011.3
20260506204655 52 0 1.0 4.0 0.00 0.00 0.00 46 1011.3
20260506204141 52 302 2.0 7.0 0.00 0.00 0.00 47 1011.2
20260506203908 52 302 2.0 7.0 0.00 0.00 0.00 47 1011.2
20260506202656 51 0 2.0 9.0 0.00 0.00 0.00 49 1011.2
20260506201654 51 319 2.0 9.0 0.00 0.00 0.00 47 1011.4
20260506201609 51 275 3.0 10.0 0.00 0.00 0.00 47 1011.4
20260506200654 51 275 3.0 10.0 0.00 0.00 0.00 47 1011.4
20260506200139 51 79 2.0 7.0 0.00 0.00 0.00 47 1011.4
20260506195906 51 79 2.0 7.0 0.00 0.00 0.00 47 1011.4
20260506194653 51 0 2.0 9.0 0.00 0.00 0.00 47 1011.4
20260506193651 50 325 2.0 8.0 0.00 0.00 0.00 48 1011.5
20260506193131 50 221 4.0 9.0 0.00 0.00 0.00 47 1011.6
20260506192859 50 221 4.0 9.0 0.00 0.00 0.00 47 1011.6
20260506191649 50 43 2.0 11.0 0.00 0.00 0.00 49 1011.6
20260506190647 50 317 2.0 11.0 0.00 0.00 0.00 47 1011.5
20260506185648 51 355 4.0 9.0 0.00 0.00 0.00 45 1011.4
20260506184648 50 271 3.0 10.0 0.00 0.00 0.00 47 1011.3
20260506183650 49 259 2.0 7.0 0.00 0.00 0.00 48 1011.5
20260506183620 49 339 2.0 9.0 0.00 0.00 0.00 49 1011.4
20260506182648 49 339 2.0 9.0 0.00 0.00 0.00 49 1011.4
20260506181646 49 326 3.0 9.0 0.00 0.00 0.00 51 1011.4
20260506181122 49 318 3.0 7.0 0.00 0.00 0.00 53 1011.6
20260506180859 49 318 3.0 7.0 0.00 0.00 0.00 53 1011.6
20260506175647 49 346 3.0 7.0 0.00 0.00 0.00 52 1011.7
20260506174646 50 0 1.0 6.0 0.00 0.00 0.00 52 1011.8
20260506173644 48 332 2.0 6.0 0.00 0.00 0.00 55 1011.7
20260506172645 47 341 4.0 9.0 0.00 0.00 0.00 57 1011.8
20260506171645 47 300 3.0 8.0 0.00 0.00 0.00 56 1011.8
20260506170645 48 319 3.0 8.0 0.00 0.00 0.00 54 1011.6
20260506170131 49 359 2.0 9.0 0.00 0.00 0.00 52 1011.5
20260506165856 49 359 2.0 9.0 0.00 0.00 0.00 52 1011.5
20260506165343 49 0 2.0 6.0 0.00 0.00 0.00 52 1011.6
20260506165223 49 0 2.0 6.0 0.00 0.00 0.00 52 1011.6
20260506164125 49 74 3.0 9.0 0.00 0.00 0.00 54 1011.7
20260506163856 49 74 3.0 9.0 0.00 0.00 0.00 54 1011.7
20260506162642 49 359 2.0 9.0 0.00 0.00 0.00 53 1011.8
20260506161642 49 21 3.0 7.0 0.00 0.00 0.00 55 1011.7
20260506160643 49 24 3.0 12.0 0.00 0.00 0.00 53 1011.6
20260506155644 48 313 4.0 9.0 0.00 0.01 0.00 55 1011.6
20260506154641 48 249 3.0 6.0 0.00 0.01 0.00 55 1011.4
20260506154617 48 54 3.0 7.0 0.00 0.02 0.00 56 1011.5
20260506153641 48 54 3.0 7.0 0.00 0.02 0.00 56 1011.5
20260506152641 48 74 3.0 9.0 0.00 0.02 0.00 56 1011.5
20260506151637 47 273 3.0 11.0 0.00 0.02 0.00 56 1011.7
20260506151115 47 0 3.0 7.0 0.00 0.02 0.00 57 1011.5
20260506150847 47 0 3.0 7.0 0.00 0.02 0.00 57 1011.5
20260506145650 46 65 3.0 10.0 0.00 0.02 0.00 59 1011.3
20260506145637 46 0 4.0 9.0 0.00 0.02 0.00 58 1011.4
20260506145506 46 65 3.0 10.0 0.00 0.02 0.00 59 1011.3
20260506143632 47 307 2.0 7.0 0.00 0.02 0.00 58 1011.2
20260506143109 46 338 3.0 9.0 0.00 0.02 0.00 60 1011.2
20260506142843 46 338 3.0 9.0 0.00 0.02 0.00 60 1011.2
20260506142318 45 343 3.0 7.0 0.00 0.02 0.00 61 1011.2
20260506142211 45 343 3.0 7.0 0.00 0.02 0.00 61 1011.2
20260506140634 45 319 3.0 9.0 0.00 0.02 0.00 61 1011.0
20260506140338 44 308 4.0 10.0 0.00 0.02 0.00 61 1011.0
20260506140207 44 308 4.0 10.0 0.00 0.02 0.00 61 1011.0
20260506134630 44 326 3.0 8.0 0.00 0.02 0.00 61 1010.9
20260506134118 44 74 4.0 10.0 0.00 0.02 0.00 60 1010.9
20260506133631 44 74 4.0 10.0 0.00 0.02 0.00 60 1010.9
20260506133111 44 10 3.0 9.0 0.00 0.02 0.00 63 1010.7
20260506132841 44 10 3.0 9.0 0.00 0.02 0.00 63 1010.7
20260506132116 43 329 4.0 11.0 0.00 0.02 0.00 62 1010.7
20260506131843 43 329 4.0 11.0 0.00 0.02 0.00 62 1010.7
20260506131111 43 9 3.0 7.0 0.00 0.02 0.00 62 1010.5
20260506130840 43 9 3.0 7.0 0.00 0.02 0.00 62 1010.5
20260506130118 42 59 5.0 11.0 0.00 0.02 0.00 62 1010.3
20260506125840 42 59 5.0 11.0 0.00 0.02 0.00 62 1010.3
20260506125104 42 19 3.0 8.0 0.00 0.02 0.00 65 1010.3
20260506124840 42 19 3.0 8.0 0.00 0.02 0.00 65 1010.3
20260506124257 41 46 5.0 13.0 0.00 0.02 0.00 66 1010.3
20260506124137 41 62 3.0 7.0 0.00 0.02 0.00 66 1010.3
20260506124025 41 46 5.0 13.0 0.00 0.02 0.00 66 1010.3
20260506122629 41 62 3.0 7.0 0.00 0.02 0.00 66 1010.3
20260506121628 41 50 3.0 8.0 0.00 0.02 0.00 70 1009.9
20260506121111 41 73 3.0 9.0 0.00 0.02 0.00 71 1010.1
20260506120842 41 73 3.0 9.0 0.00 0.02 0.00 71 1010.1
20260506115630 41 53 3.0 6.0 0.00 0.02 0.00 73 1009.7
20260506115315 40 64 3.0 9.0 0.00 0.02 0.00 73 1009.5
20260506115212 40 64 3.0 9.0 0.00 0.02 0.00 73 1009.5
20260506113629 40 353 2.0 5.0 0.00 0.02 0.00 74 1009.6
20260506112634 40 345 1.0 4.0 0.00 0.02 0.00 74 1009.4
20260506111629 39 46 1.0 2.0 0.00 0.02 0.00 75 1009.4
20260506110630 40 0 0.0 1.0 0.00 0.02 0.00 74 1009.1
20260506105629 40 324 0.0 1.0 0.00 0.02 0.00 73 1009.0
20260506104629 40 44 0.0 3.0 0.00 0.02 0.00 72 1008.8
20260506103631 41 0 2.0 6.0 0.00 0.02 0.00 70 1008.8
20260506103105 41 58 1.0 4.0 0.00 0.02 0.00 69 1008.8
20260506102841 41 58 1.0 4.0 0.00 0.02 0.00 69 1008.8
20260506101629 41 10 1.0 4.0 0.00 0.01 0.00 68 1008.6
20260506100631 42 52 2.0 6.0 0.00 0.01 0.00 68 1008.2
20260506095630 42 331 1.0 5.0 0.00 0.01 0.00 68 1008.0
20260506094630 42 0 1.0 3.0 0.00 0.01 0.00 68 1008.0
20260506094109 42 43 2.0 4.0 0.00 0.01 0.00 68 1008.1
20260506093841 42 43 2.0 4.0 0.00 0.01 0.00 68 1008.1
20260506092630 42 70 2.0 4.0 0.00 0.01 0.00 71 1008.1
20260506092117 43 351 2.0 4.0 0.00 0.01 0.00 71 1008.1
20260506091630 43 351 2.0 4.0 0.00 0.01 0.00 71 1008.1
20260506090630 43 67 2.0 4.0 0.00 0.01 0.00 73 1007.9
20260506090104 43 334 2.0 4.0 0.00 0.01 0.00 73 1007.9
20260506085841 43 334 2.0 4.0 0.00 0.01 0.00 73 1007.9
20260506085314 44 42 2.0 4.0 0.00 0.01 0.00 74 1008.0
20260506085125 44 42 2.0 4.0 0.00 0.01 0.00 74 1008.0
20260506083621 44 50 2.0 7.0 0.00 0.01 0.00 74 1007.9
20260506083109 44 339 2.0 5.0 0.00 0.01 0.00 73 1008.0
20260506082621 44 339 2.0 5.0 0.00 0.01 0.00 73 1008.0
20260506082555 45 338 2.0 3.0 0.00 0.01 0.00 73 1008.1
20260506082348 45 338 2.0 3.0 0.00 0.01 0.00 73 1008.1
20260506080619 45 333 1.0 4.0 0.00 0.01 0.00 71 1007.9
20260506072603 46 335 2.0 5.0 0.00 0.01 0.00 65 1007.7
20260506071602 46 344 1.0 3.0 0.00 0.01 0.00 63 1007.8
20260506071051 46 306 1.0 4.0 0.00 0.01 0.00 62 1007.6
20260506070602 46 306 1.0 4.0 0.00 0.01 0.00 62 1007.6
20260506070552 47 277 2.0 5.0 0.00 0.01 0.00 61 1007.8
20260506070332 47 277 2.0 5.0 0.00 0.01 0.00 61 1007.8
20260506062051 47 345 2.0 6.0 0.00 0.01 0.00 58 1007.8
20260506061809 47 345 2.0 6.0 0.00 0.01 0.00 58 1007.8
20260506060559 47 312 1.0 7.0 0.00 0.01 0.00 58 1007.7
20260506050554 48 38 3.0 7.0 0.00 0.01 0.00 53 1007.5
20260506045030 48 278 2.0 6.0 0.00 0.02 0.00 53 1007.3
20260506044807 48 278 2.0 6.0 0.00 0.02 0.00 53 1007.3
20260506044040 48 288 2.0 7.0 0.00 0.02 0.00 53 1007.4
20260506043554 48 288 2.0 7.0 0.00 0.02 0.00 53 1007.4
20260506042553 49 301 2.0 7.0 0.00 0.02 0.00 52 1007.3
20260506042032 49 0 2.0 7.0 0.00 0.02 0.00 53 1007.5
20260506041553 49 0 2.0 7.0 0.00 0.02 0.00 53 1007.5
20260506040550 49 0 2.0 9.0 0.00 0.02 0.00 52 1007.5
20260506035550 49 290 2.0 7.0 0.00 0.02 0.02 52 1007.6
20260506034550 49 249 1.0 6.0 0.00 0.02 0.02 52 1007.5
20260506033547 49 307 1.0 4.0 0.00 0.02 0.02 52 1007.5
20260506032548 49 215 1.0 5.0 0.00 0.02 0.02 52 1007.6
20260506032029 49 0 0.0 5.0 0.00 0.02 0.02 53 1007.6
20260506031548 49 0 0.0 5.0 0.00 0.02 0.02 53 1007.6
20260506030543 49 0 1.0 5.0 0.00 0.02 0.02 52 1007.5
20260506030028 49 65 0.0 4.0 0.00 0.02 0.02 51 1007.6
20260506025754 49 65 0.0 4.0 0.00 0.02 0.02 51 1007.6
20260506024543 49 0 0.0 4.0 0.00 0.02 0.02 51 1007.8
20260506023542 49 0 0.0 4.0 0.00 0.02 0.02 50 1007.5
20260506022912 50 0 0.0 3.0 0.00 0.02 0.02 50 1007.6
20260506022646 50 0 0.0 2.0 0.00 0.02 0.02 50 1007.6
20260506021715 50 116 0.0 4.0 0.00 0.02 0.02 49 1007.7
20260506020538 50 0 0.0 3.0 0.00 0.02 0.02 50 1007.6
20260506015538 50 0 0.0 3.0 0.00 0.02 0.02 49 1007.3
20260506015021 50 0 0.0 3.0 0.00 0.02 0.02 48 1007.3
20260506014538 50 0 0.0 3.0 0.00 0.02 0.02 48 1007.3
20260506014456 50 293 0.0 3.0 0.00 0.02 0.02 49 1007.2
20260506013538 50 293 0.0 3.0 0.00 0.02 0.02 49 1007.2
20260506012539 51 0 0.0 3.0 0.00 0.02 0.02 48 1007.1
20260506011537 51 0 1.0 5.0 0.00 0.02 0.02 46 1007.1
20260506010538 51 117 0.0 4.0 0.00 0.02 0.02 48 1007.0
20260506005537 51 0 1.0 8.0 0.00 0.02 0.02 46 1007.0
20260506004537 51 0 0.0 3.0 0.00 0.02 0.02 47 1007.1
20260506003535 51 200 0.0 3.0 0.00 0.02 0.02 47 1007.0
20260506003505 52 176 0.0 3.0 0.00 0.02 0.02 48 1006.9
20260506002747 52 176 0.0 3.0 0.00 0.02 0.02 48 1006.9
20260506002015 52 0 0.0 4.0 0.00 0.02 0.02 47 1006.7
20260506001746 52 0 0.0 4.0 0.00 0.02 0.02 47 1006.7
20260506000534 52 0 1.0 6.0 0.00 0.02 0.02 47 1006.6
20260505235536 53 0 0.0 3.0 0.00 0.02 0.02 48 1006.5
20260505235456 53 0 1.0 9.0 0.00 0.02 0.02 48 1006.4
20260505234536 53 0 1.0 9.0 0.00 0.02 0.02 48 1006.4
20260505234021 53 0 0.0 4.0 0.00 0.02 0.02 51 1006.3
20260505233748 53 0 0.0 4.0 0.00 0.02 0.02 51 1006.3
20260505233019 53 0 0.0 2.0 0.00 0.02 0.02 56 1006.2
20260505232538 53 0 0.0 2.0 0.00 0.02 0.02 56 1006.2
20260505231533 54 197 0.0 4.0 0.00 0.02 0.02 54 1006.2
20260505231440 54 300 0.0 2.0 0.00 0.02 0.02 55 1006.2
20260505230742 54 300 0.0 2.0 0.00 0.02 0.02 55 1006.2
20260505225530 54 0 0.0 3.0 0.00 0.02 0.02 54 1006.3
20260505225018 54 0 0.0 3.0 0.00 0.02 0.02 55 1006.4
20260505224742 54 0 0.0 3.0 0.00 0.02 0.02 55 1006.4
20260505223531 54 0 1.0 5.0 0.00 0.02 0.02 54 1006.3
20260505223013 54 0 0.0 5.0 0.00 0.02 0.02 56 1006.4
20260505222529 54 0 0.0 5.0 0.00 0.02 0.02 56 1006.4
20260505221529 55 265 1.0 6.0 0.00 0.02 0.02 53 1006.5
20260505220529 55 0 0.0 4.0 0.00 0.02 0.02 55 1006.5
20260505220008 55 241 1.0 4.0 0.00 0.02 0.02 57 1006.5
20260505215741 55 241 1.0 4.0 0.00 0.02 0.02 57 1006.5
20260505215014 54 188 1.0 6.0 0.00 0.02 0.02 57 1006.4
20260505214742 54 188 1.0 6.0 0.00 0.02 0.02 57 1006.4
20260505213530 54 339 1.0 4.0 0.00 0.02 0.02 59 1006.3
20260505212530 54 0 1.0 5.0 0.00 0.02 0.02 62 1006.4
20260505211530 54 237 1.0 5.0 0.00 0.02 0.02 63 1006.4